period_start,C,m1,H,J0,J1,J2,J3,J4,J5,JA,JB,JC,JD,JJ,JK,JN,#
2017-04-04 00:03:36,0.07,3.68,0.00,22.84,26.43,30.31,14.38,48.64,1003.92,2030.81,2324.21,2208.07,2527.33,599.92,588.83,31.19,0000 0000 0000 0000 000000
2017-04-04 00:08:37,0.04,3.68,0.00,22.93,26.46,30.31,14.44,48.63,1003.92,2030.43,2323.27,2207.29,2526.40,600.31,589.04,31.24,0000 0000 0000 0000 000000
2017-04-04 00:13:38,0.06,3.68,0.00,22.96,26.49,30.35,14.32,48.66,1003.92,2030.07,2322.15,2206.43,2525.38,599.98,588.73,31.29,0000 0000 0000 0000 000000
2017-04-04 00:18:40,0.06,3.69,0.00,23.01,26.52,30.37,14.37,48.75,1003.92,2030.01,2321.14,2205.80,2524.53,599.88,588.44,31.34,0000 0000 0000 0000 000000
2017-04-04 00:23:41,0.06,3.69,0.00,23.05,26.55,30.40,14.29,48.66,1003.92,2030.00,2320.25,2205.04,2523.78,599.78,588.19,31.39,0000 0000 0000 0000 000000
2017-04-04 00:28:42,0.08,3.70,0.00,23.08,26.58,30.43,14.38,48.66,1003.92,2030.00,2319.43,2204.35,2522.98,600.08,588.40,31.44,0000 0000 0000 0000 000000
2017-04-04 00:33:44,0.07,3.70,0.00,23.12,26.61,30.47,14.36,48.77,1003.92,2029.99,2318.55,2203.72,2522.10,599.96,588.40,31.49,0000 0000 0000 0000 000000
2017-04-04 00:38:45,0.07,3.70,0.00,23.13,26.64,30.48,14.38,48.74,1003.92,2029.95,2317.44,2202.96,2521.25,600.04,588.37,31.54,0000 0000 0000 0000 000000
2017-04-04 00:43:46,0.06,3.71,0.00,23.16,26.67,30.53,14.38,48.72,1003.92,2029.76,2316.29,2202.09,2520.30,600.14,588.34,31.59,0000 0000 0000 0000 000000
2017-04-04 00:48:47,0.04,3.71,0.00,23.23,26.71,30.56,14.33,48.74,1003.87,2029.34,2315.16,2201.38,2519.40,599.82,588.02,31.64,0000 0000 0000 0000 000000
2017-04-04 00:53:49,0.05,3.71,0.00,23.26,26.74,30.55,14.42,48.72,1003.81,2029.05,2314.30,2200.75,2518.59,600.00,587.97,31.69,0000 0000 0000 0000 000000
2017-04-04 00:58:50,0.06,3.72,0.00,23.29,26.77,30.59,14.36,48.70,1003.78,2029.02,2313.48,2200.02,2517.81,600.41,588.25,31.74,0000 0000 0000 0000 000000
2017-04-04 01:03:51,0.08,3.72,0.00,23.37,26.81,30.62,14.32,48.65,1003.86,2029.00,2312.41,2199.21,2517.01,599.88,587.71,31.79,0000 0000 0000 0000 000000
2017-04-04 01:08:52,0.08,3.72,0.00,23.41,26.85,30.65,14.27,48.73,1003.77,2029.00,2311.57,2198.54,2516.12,599.50,587.15,31.84,0000 0000 0000 0000 000000
2017-04-04 01:13:53,0.06,3.73,0.00,23.45,26.89,30.66,14.32,48.67,1003.60,2028.97,2310.64,2197.84,2515.27,599.92,587.37,31.89,0000 0000 0000 0000 000000
2017-04-04 01:18:55,0.07,3.73,0.00,23.52,26.93,30.73,14.39,48.70,1003.57,2028.81,2309.51,2197.03,2514.26,600.15,587.51,31.94,0000 0000 0000 0000 000000
2017-04-04 01:23:56,0.01,3.73,0.00,23.54,26.98,30.75,14.30,48.70,1003.46,2028.18,2308.72,2196.24,2513.44,600.03,587.21,31.99,0000 0000 0000 0000 000000
2017-04-04 01:28:57,0.06,3.73,0.00,23.57,27.03,30.75,14.39,48.75,1003.45,2028.01,2307.85,2195.57,2512.64,600.52,587.71,32.04,0000 0000 0000 0000 000000
2017-04-04 01:33:59,0.07,3.74,0.00,23.66,27.07,30.83,14.36,48.73,1003.44,2028.00,2306.87,2194.84,2511.71,600.15,587.00,32.09,0000 0000 0000 0000 000000
2017-04-04 01:39:00,0.09,3.74,0.00,23.69,27.12,30.84,14.35,48.65,1003.44,2027.99,2305.70,2194.02,2510.79,600.14,587.07,32.14,0000 0000 0000 0000 000000
2017-04-04 01:44:01,0.07,3.75,0.00,23.71,27.16,30.87,14.34,48.70,1003.44,2027.92,2304.63,2193.17,2509.89,600.12,587.05,32.19,0000 0000 0000 0000 000000
2017-04-04 01:49:02,0.03,3.75,0.00,23.76,27.21,30.91,14.33,48.72,1003.44,2027.62,2303.83,2192.56,2509.03,600.42,587.20,32.25,0000 0000 0000 0000 000000
2017-04-04 01:54:04,0.02,3.75,0.00,23.81,27.25,30.99,14.32,48.67,1003.43,2027.06,2302.86,2191.78,2508.07,600.13,586.84,32.30,0000 0000 0000 0000 000000
2017-04-04 01:59:05,0.10,3.75,0.00,23.84,27.29,31.00,14.31,48.77,1003.44,2027.00,2301.66,2190.90,2507.11,599.38,586.04,32.35,0000 0000 0000 0000 000000
2017-04-04 02:04:06,0.09,3.76,0.00,24.16,27.33,31.05,14.23,48.67,1003.44,2027.00,2300.38,2190.04,2506.09,599.90,585.89,32.40,0000 0000 0000 0000 000000
2017-04-04 02:09:07,0.08,3.76,0.00,24.47,27.39,31.01,14.29,48.71,1003.44,2026.97,2299.53,2189.26,2505.20,600.04,585.47,32.45,0000 0000 0000 0000 000000
2017-04-04 02:14:09,0.03,3.77,0.00,24.14,27.44,30.96,14.34,48.73,1003.45,2026.66,2298.67,2188.60,2504.38,600.45,586.60,32.50,0000 0000 0000 0000 000000
2017-04-04 02:19:10,0.01,3.77,0.00,24.19,27.48,31.02,14.19,48.77,1003.46,2026.10,2297.75,2187.91,2503.55,599.77,585.73,32.55,0000 0000 0000 0000 000000
2017-04-04 02:24:11,0.09,3.77,0.00,24.31,27.52,31.11,14.18,48.78,1003.43,2026.01,2296.75,2187.05,2502.59,599.61,585.29,32.60,0000 0000 0000 0000 000000
2017-04-04 02:29:12,0.06,3.77,0.00,24.19,27.55,31.24,14.28,48.84,1003.43,2026.00,2295.92,2186.25,2501.88,600.07,585.83,32.65,0000 0000 0000 0000 000000
2017-04-04 02:34:13,0.06,3.78,0.00,24.14,27.57,31.25,14.27,48.72,1003.43,2026.00,2295.08,2185.76,2501.07,599.87,585.97,32.70,0000 0000 0000 0000 000000
2017-04-04 02:39:15,0.07,3.78,0.00,24.13,27.59,31.20,14.29,48.77,1003.43,2025.99,2294.17,2185.03,2500.27,599.77,585.90,32.75,0000 0000 0000 0000 000000
2017-04-04 02:44:16,0.08,3.78,0.00,24.15,27.60,31.18,14.22,48.92,1003.43,2025.98,2293.33,2184.43,2499.66,599.55,585.61,32.80,0000 0000 0000 0000 000000
2017-04-04 02:49:18,0.03,3.79,0.00,24.17,27.62,31.21,14.23,48.83,1003.42,2025.96,2292.63,2183.97,2498.99,599.78,585.86,32.85,0000 0000 0000 0000 000000
2017-04-04 02:54:19,0.08,3.79,0.00,24.17,27.62,31.21,14.34,48.88,1003.43,2025.92,2291.69,2183.17,2498.14,600.46,586.34,32.90,0000 0000 0000 0000 000000
2017-04-04 02:59:20,0.04,3.79,0.00,24.31,27.65,31.14,14.19,48.63,1003.42,2025.80,2290.78,2182.63,2497.33,599.87,585.55,32.95,0000 0000 0000 0000 000000
2017-04-04 03:04:22,0.01,3.79,0.00,24.76,27.66,31.00,14.22,48.72,1003.43,2025.21,2289.86,2181.95,2496.62,599.84,584.72,33.00,0000 0000 0000 0000 000000
2017-04-04 03:09:23,0.06,3.80,0.00,24.49,27.69,30.98,14.24,48.76,1003.41,2025.02,2288.89,2181.12,2495.85,599.93,585.19,33.05,0000 0000 0000 0000 000000
2017-04-04 03:14:24,0.07,3.80,0.00,24.28,27.71,31.04,14.25,48.82,1003.40,2025.00,2288.05,2180.56,2495.05,600.02,585.70,33.10,0000 0000 0000 0000 000000
2017-04-04 03:19:25,0.06,3.80,0.00,24.52,27.72,31.09,14.34,48.83,1003.31,2025.00,2287.41,2180.01,2494.50,600.34,585.46,33.16,0000 0000 0000 0000 000000
2017-04-04 03:24:26,0.07,3.81,0.00,24.56,27.75,31.20,14.24,48.77,1003.34,2025.00,2286.61,2179.42,2493.83,599.77,585.06,33.21,0000 0000 0000 0000 000000
2017-04-04 03:29:28,0.06,3.81,0.00,24.49,27.75,31.28,14.27,48.81,1003.35,2024.99,2285.54,2178.83,2493.04,600.02,585.35,33.26,0000 0000 0000 0000 000000
2017-04-04 03:34:29,0.06,3.81,0.00,24.50,27.76,31.25,14.26,48.80,1003.35,2024.99,2284.87,2178.06,2492.43,599.66,585.03,33.31,0000 0000 0000 0000 000000
2017-04-04 03:39:30,0.07,3.82,0.00,24.53,27.77,31.25,14.29,48.76,1003.41,2024.99,2283.84,2177.67,2491.80,600.13,585.42,33.36,0000 0000 0000 0000 000000
2017-04-04 03:44:32,0.05,3.82,0.00,24.83,27.77,31.17,14.15,48.76,1003.41,2024.98,2283.03,2177.03,2491.04,599.94,584.65,33.41,0000 0000 0000 0000 000000
2017-04-04 03:49:33,0.06,3.82,0.00,24.92,27.79,30.97,14.28,48.77,1003.43,2024.95,2282.59,2176.65,2490.51,600.42,584.92,33.46,0000 0000 0000 0000 000000
2017-04-04 03:54:34,0.06,3.83,0.00,24.56,27.80,30.99,14.29,48.89,1003.43,2024.94,2281.54,2175.95,2489.82,600.21,585.41,33.51,0000 0000 0000 0000 000000
2017-04-04 03:59:35,0.06,3.83,0.00,24.53,27.80,31.11,14.26,49.07,1003.42,2024.87,2280.78,2175.17,2489.04,599.86,585.19,33.56,0000 0000 0000 0000 000000
2017-04-04 04:04:37,0.02,3.83,0.00,24.75,27.82,31.20,14.20,48.95,1003.43,2024.76,2280.18,2175.00,2488.62,600.10,584.87,33.61,0000 0000 0000 0000 000000
2017-04-04 04:09:38,0.05,3.83,0.00,24.73,27.82,31.24,14.24,48.83,1003.43,2024.52,2279.30,2174.38,2487.95,600.24,585.24,33.66,0000 0000 0000 0000 000000
2017-04-04 04:14:40,0.06,3.84,0.00,24.68,27.82,31.21,14.28,48.97,1003.43,2024.47,2278.14,2173.92,2487.09,600.12,585.02,33.71,0000 0000 0000 0000 000000
2017-04-04 04:19:41,0.11,3.84,0.00,24.67,27.80,31.21,14.31,48.87,1003.43,2024.77,2277.08,2173.12,2486.36,600.23,585.25,33.76,0000 0000 0000 0000 000000
2017-04-04 04:24:42,0.05,3.84,0.00,24.83,27.80,31.18,14.25,48.91,1003.42,2024.70,2276.27,2172.76,2485.80,600.07,584.80,33.81,0000 0000 0000 0000 000000
2017-04-04 04:29:44,0.09,3.85,0.00,25.02,27.80,30.98,14.20,48.84,1003.42,2024.87,2275.13,2172.04,2485.04,599.86,584.13,33.86,0000 0000 0000 0000 000000
2017-04-04 04:34:45,0.04,3.85,0.00,24.65,27.80,30.94,14.17,48.94,1003.35,2024.89,2274.67,2171.82,2484.56,600.12,585.11,33.91,0000 0000 0000 0000 000000
2017-04-04 04:39:46,0.05,3.86,0.00,24.56,27.80,31.02,14.27,49.08,1003.41,2024.77,2273.86,2171.05,2483.98,600.07,585.38,33.96,0000 0000 0000 0000 000000
2017-04-04 04:44:48,0.10,3.86,0.00,24.76,27.80,31.11,14.31,49.05,1003.43,2024.84,2272.73,2170.58,2483.21,600.14,584.97,34.01,0000 0000 0000 0000 000000
2017-04-04 04:49:49,0.05,3.86,0.00,24.76,27.79,31.18,14.18,48.92,1003.43,2024.95,2272.00,2170.01,2482.70,599.91,584.74,34.07,0000 0000 0000 0000 000000
2017-04-04 04:54:51,0.05,3.87,0.00,24.79,27.77,31.19,14.25,48.92,1003.43,2024.98,2271.42,2169.73,2482.03,599.91,584.63,34.12,0000 0000 0000 0000 000000
2017-04-04 04:59:52,0.03,3.87,0.00,25.01,27.77,31.06,14.18,48.92,1003.43,2024.96,2270.88,2169.04,2481.67,599.96,584.47,34.17,0000 0000 0000 0000 000000
2017-04-04 05:04:53,0.05,3.87,0.00,24.79,27.77,30.91,14.24,48.97,1003.43,2024.97,2270.11,2168.88,2481.03,600.10,584.71,34.22,0000 0000 0000 0000 000000
2017-04-04 05:09:54,0.07,3.87,0.00,24.61,27.76,30.95,14.22,48.94,1003.41,2024.95,2269.34,2168.12,2480.48,599.75,584.91,34.27,0000 0000 0000 0000 000000
2017-04-04 05:14:56,0.03,3.88,0.00,24.83,27.75,30.98,14.17,48.83,1003.42,2024.98,2268.67,2167.98,2480.00,599.84,584.46,34.32,0000 0000 0000 0000 000000
2017-04-04 05:19:57,0.06,3.88,0.00,24.87,27.75,31.07,14.25,48.99,1003.43,2024.99,2268.01,2167.37,2479.54,600.10,584.75,34.37,0000 0000 0000 0000 000000
2017-04-04 05:24:58,0.03,3.88,0.00,24.88,27.75,31.10,14.25,48.92,1003.43,2024.99,2267.50,2167.00,2479.01,599.97,584.73,34.42,0000 0000 0000 0000 000000
2017-04-04 05:29:59,0.06,3.88,0.00,25.08,27.75,30.95,14.26,48.97,1003.42,2024.99,2266.81,2166.67,2478.54,599.91,584.11,34.47,0000 0000 0000 0000 000000
2017-04-04 05:35:01,0.04,3.89,0.00,24.79,27.74,30.84,14.27,49.01,1003.43,2024.99,2266.02,2166.03,2477.98,600.14,584.97,34.52,0000 0000 0000 0000 000000
2017-04-04 05:40:02,0.06,3.89,0.00,24.71,27.72,30.91,14.18,48.98,1003.43,2024.99,2265.16,2165.81,2477.26,600.08,585.08,34.57,0000 0000 0000 0000 000000
2017-04-04 05:45:03,0.04,3.89,0.00,24.88,27.72,30.94,14.26,49.02,1003.43,2024.99,2264.75,2165.08,2476.97,600.10,584.64,34.62,0000 0000 0000 0000 000000
2017-04-04 05:50:04,0.06,3.90,0.00,24.88,27.72,31.03,14.15,49.06,1003.43,2024.99,2263.85,2164.85,2476.22,600.03,584.72,34.67,0000 0000 0000 0000 000000
2017-04-04 05:55:05,0.05,3.90,0.00,24.87,27.70,31.07,14.19,49.01,1003.43,2024.99,2263.03,2164.11,2475.92,599.81,584.40,34.72,0000 0000 0000 0000 000000
2017-04-04 06:00:06,0.05,3.90,0.00,25.06,27.70,30.95,14.27,49.03,1003.43,2024.99,2262.27,2163.95,2475.10,600.14,584.33,34.77,0000 0000 0000 0000 000000
2017-04-04 06:05:08,0.09,3.91,0.00,24.78,27.70,30.85,14.22,49.02,1003.44,2025.00,2261.42,2163.21,2474.53,599.93,584.74,34.82,0000 0000 0000 0000 000000
2017-04-04 06:10:09,0.01,3.91,0.00,24.73,27.68,30.87,14.19,48.91,1003.46,2025.00,2260.93,2162.99,2474.01,599.56,584.52,34.87,0000 0000 0000 0000 000000
2017-04-04 06:15:10,0.00,3.91,0.00,24.91,27.67,30.90,14.20,48.97,1003.47,2025.01,2260.90,2162.85,2473.97,600.07,584.75,34.93,0000 0000 0000 0000 000000
2017-04-04 06:20:12,0.08,3.91,0.00,25.02,27.67,30.86,14.26,49.02,1003.48,2025.02,2260.08,2162.07,2473.23,600.24,584.53,34.98,0000 0000 0000 0000 000000
2017-04-04 06:25:13,0.04,3.91,0.00,25.08,27.67,30.78,14.16,48.88,1003.51,2025.01,2259.25,2161.87,2472.86,600.17,584.51,35.03,0000 0000 0000 0000 000000
2017-04-04 06:30:14,0.08,3.92,0.00,25.07,27.67,30.77,14.17,48.86,1003.56,2025.02,2258.61,2161.15,2472.10,600.09,584.38,35.08,0000 0000 0000 0000 000000
2017-04-04 06:35:15,0.05,3.92,0.00,25.07,27.67,30.77,14.18,48.79,1003.70,2025.06,2257.65,2160.87,2471.58,599.80,584.18,35.13,0000 0000 0000 0000 000000
2017-04-04 06:40:16,0.04,3.92,0.00,25.09,27.67,30.78,14.15,48.83,1003.75,2025.05,2257.01,2160.10,2471.00,599.47,583.90,35.18,0000 0000 0000 0000 000000
2017-04-04 06:45:18,0.03,3.92,0.00,25.10,27.67,30.75,14.16,48.83,1003.70,2025.07,2256.57,2159.99,2470.64,599.86,584.13,35.23,0000 0000 0000 0000 000000
2017-04-04 06:50:19,0.05,3.93,0.00,25.06,27.67,30.75,14.15,48.86,1003.69,2025.05,2256.00,2159.55,2470.01,599.82,584.22,35.28,0000 0000 0000 0000 000000
2017-04-04 06:55:20,0.05,3.93,0.00,25.09,27.67,30.73,14.16,48.83,1003.82,2025.07,2255.27,2159.01,2469.54,599.65,584.06,35.33,0000 0000 0000 0000 000000
2017-04-04 07:00:21,0.03,3.93,0.00,25.06,27.65,30.72,14.16,48.86,1003.82,2025.05,2254.85,2158.72,2469.00,599.83,584.38,35.38,0000 0000 0000 0000 000000
2017-04-04 07:05:23,0.08,3.94,0.00,24.98,27.65,30.71,14.21,48.88,1003.77,2025.09,2254.06,2158.04,2468.48,600.25,584.75,35.43,0000 0000 0000 0000 000000
2017-04-04 07:10:24,0.03,3.94,0.00,25.06,27.64,30.70,14.18,48.76,1003.81,2025.06,2253.34,2157.95,2468.01,600.39,584.78,35.48,0000 0000 0000 0000 000000
2017-04-04 07:15:25,0.09,3.94,0.00,25.12,27.63,30.68,14.19,48.89,1003.84,2025.33,2252.94,2157.38,2467.78,600.00,584.36,35.53,0000 0000 0000 0000 000000
2017-04-04 07:20:27,0.05,3.95,0.00,25.11,27.62,30.67,14.20,48.87,1003.89,2025.41,2252.06,2157.00,2467.02,599.89,584.28,35.58,0000 0000 0000 0000 000000
2017-04-04 07:25:28,0.08,3.95,0.00,25.04,27.62,30.64,14.15,48.80,1003.92,2025.43,2251.27,2156.37,2466.33,599.91,584.54,35.63,0000 0000 0000 0000 000000
2017-04-04 07:30:29,0.03,3.95,0.00,25.07,27.60,30.64,14.19,48.93,1003.92,2025.52,2250.87,2156.00,2466.00,599.66,584.17,35.68,0000 0000 0000 0000 000000
2017-04-04 07:35:30,0.06,3.95,0.00,25.13,27.60,30.65,14.22,48.88,1003.92,2025.66,2250.09,2155.74,2465.46,599.93,584.32,35.73,0000 0000 0000 0000 000000
2017-04-04 07:40:31,0.07,3.96,0.00,25.10,27.60,30.62,14.22,48.83,1003.92,2025.68,2249.49,2155.04,2465.00,600.11,584.55,35.78,0000 0000 0000 0000 000000
2017-04-04 07:45:32,0.05,3.96,0.00,24.93,27.58,30.63,14.14,48.88,1003.93,2025.91,2248.81,2154.97,2464.32,599.98,584.82,35.83,0000 0000 0000 0000 000000
2017-04-04 07:50:33,0.06,3.96,0.00,24.98,27.57,30.62,14.13,48.85,1003.93,2025.95,2248.17,2154.29,2464.00,599.80,584.42,35.88,0000 0000 0000 0000 000000
2017-04-04 07:55:35,0.02,3.97,0.00,25.11,27.56,30.60,14.15,48.92,1003.92,2025.97,2247.94,2154.00,2463.66,599.85,584.36,35.93,0000 0000 0000 0000 000000
2017-04-04 08:00:36,0.05,3.97,0.00,25.03,27.55,30.60,14.21,48.79,1003.93,2025.98,2247.13,2153.80,2463.03,600.12,584.67,35.99,0000 0000 0000 0000 000000
2017-04-04 08:05:37,0.06,3.97,0.00,25.11,27.55,30.62,14.19,48.86,1003.93,2025.98,2246.68,2153.08,2462.68,600.28,584.71,36.04,0000 0000 0000 0000 000000
2017-04-04 08:10:39,0.02,3.97,0.00,25.19,27.53,30.64,14.16,49.00,1003.93,2025.99,2245.98,2152.96,2462.02,600.21,584.46,36.09,0000 0000 0000 0000 000000
2017-04-04 08:15:40,0.08,3.98,0.00,25.21,27.52,30.66,14.17,48.95,1003.93,2025.99,2245.15,2152.29,2461.60,600.09,584.31,36.14,0000 0000 0000 0000 000000
2017-04-04 08:20:42,0.03,3.98,0.00,25.23,27.52,30.67,14.19,48.87,1003.93,2025.99,2244.69,2152.00,2461.01,600.06,584.24,36.19,0000 0000 0000 0000 000000
2017-04-04 08:25:43,0.05,3.98,0.00,25.23,27.50,30.66,14.20,48.92,1003.94,2025.99,2244.02,2151.67,2460.59,599.90,584.22,36.24,0000 0000 0000 0000 000000
2017-04-04 08:30:44,0.05,3.98,0.00,25.23,27.50,30.65,14.20,48.83,1003.96,2025.99,2243.24,2151.03,2460.01,600.09,584.30,36.29,0000 0000 0000 0000 000000
2017-04-04 08:35:46,0.04,3.99,0.00,25.21,27.49,30.65,14.21,48.78,1003.98,2025.99,2242.71,2150.82,2459.55,599.97,584.17,36.34,0000 0000 0000 0000 000000
2017-04-04 08:40:47,0.05,3.99,0.00,25.18,27.47,30.67,14.12,48.73,1004.08,2025.99,2242.00,2150.07,2459.00,599.87,584.26,36.39,0000 0000 0000 0000 000000
2017-04-04 08:45:48,0.04,3.99,0.00,25.16,27.47,30.65,14.25,48.71,1004.26,2025.99,2241.36,2149.99,2458.66,599.99,584.64,36.44,0000 0000 0000 0000 000000
2017-04-04 08:50:49,0.05,3.99,0.00,25.13,27.46,30.66,14.16,48.75,1004.34,2025.99,2240.93,2149.43,2458.02,599.77,584.45,36.49,0000 0000 0000 0000 000000
2017-04-04 08:55:51,0.05,4.00,0.00,25.13,27.45,30.67,14.25,48.74,1004.35,2025.99,2240.13,2149.01,2457.56,600.10,584.74,36.54,0000 0000 0000 0000 000000
2017-04-04 09:00:52,0.04,4.00,0.00,25.13,27.44,30.68,14.22,48.77,1004.35,2025.99,2239.44,2148.82,2457.01,600.04,584.63,36.59,0000 0000 0000 0000 000000
2017-04-04 09:05:53,0.05,4.00,0.00,25.13,27.42,30.67,14.15,48.66,1004.34,2025.99,2238.99,2148.08,2456.65,600.23,584.88,36.64,0000 0000 0000 0000 000000
2017-04-04 09:10:54,0.03,4.00,0.00,25.11,27.42,30.67,14.20,48.67,1004.38,2026.00,2238.19,2147.97,2456.02,599.77,584.44,36.69,0000 0000 0000 0000 000000
2017-04-04 09:15:55,0.06,4.01,0.00,25.07,27.40,30.63,14.15,48.80,1004.40,2026.01,2237.76,2147.40,2455.71,599.71,584.50,36.74,0000 0000 0000 0000 000000
2017-04-04 09:20:56,0.03,4.01,0.00,25.06,27.39,30.67,14.19,48.80,1004.41,2026.02,2237.03,2147.00,2455.02,599.92,584.69,36.79,0000 0000 0000 0000 000000
2017-04-04 09:25:58,0.05,4.01,0.00,25.07,27.37,30.66,14.09,48.73,1004.41,2026.02,2236.49,2146.78,2454.75,599.94,584.78,36.84,0000 0000 0000 0000 000000
2017-04-04 09:30:59,0.05,4.02,0.00,25.02,27.37,30.60,14.19,48.70,1004.42,2026.05,2235.97,2146.08,2454.05,600.00,584.92,36.90,0000 0000 0000 0000 000000
2017-04-04 09:36:00,0.04,4.02,0.00,24.93,27.35,30.59,14.23,48.65,1004.42,2026.07,2235.17,2145.99,2453.93,600.31,585.38,36.95,0000 0000 0000 0000 000000
2017-04-04 09:41:01,0.08,4.02,0.00,24.98,27.35,30.58,14.24,48.85,1004.43,2026.18,2234.73,2145.54,2453.13,600.11,585.12,37.00,0000 0000 0000 0000 000000
2017-04-04 09:46:02,0.05,4.02,0.00,24.93,27.33,30.56,14.22,48.81,1004.45,2026.40,2234.02,2145.02,2452.99,599.67,584.83,37.05,0000 0000 0000 0000 000000
2017-04-04 09:51:03,0.05,4.03,0.00,24.94,27.32,30.57,14.19,48.65,1004.61,2026.52,2233.57,2144.98,2452.35,600.07,585.17,37.10,0000 0000 0000 0000 000000
2017-04-04 09:56:05,0.09,4.03,0.00,24.96,27.30,30.60,14.20,48.59,1004.70,2026.80,2233.00,2144.46,2452.00,599.97,585.13,37.15,0000 0000 0000 0000 000000
2017-04-04 10:01:06,0.05,4.03,0.00,24.93,27.30,30.54,14.23,48.83,1004.68,2026.96,2232.61,2144.01,2451.80,599.85,585.14,37.20,0000 0000 0000 0000 000000
2017-04-04 10:06:07,0.02,4.03,0.00,24.94,27.28,30.56,14.11,48.64,1004.73,2026.96,2232.01,2143.98,2451.07,599.55,584.79,37.25,0000 0000 0000 0000 000000
2017-04-04 10:11:09,0.04,4.04,0.00,24.96,27.27,30.58,14.25,48.70,1004.90,2026.97,2231.81,2143.40,2450.98,599.49,584.85,37.30,0000 0000 0000 0000 000000
2017-04-04 10:16:10,0.05,4.04,0.00,24.94,27.26,30.57,14.25,48.73,1004.90,2026.98,2231.11,2143.02,2450.41,600.26,585.58,37.35,0000 0000 0000 0000 000000
2017-04-04 10:21:11,0.04,4.04,0.00,24.96,27.25,30.55,14.27,48.74,1004.90,2026.98,2230.26,2142.76,2449.96,600.27,585.60,37.40,0000 0000 0000 0000 000000
2017-04-04 10:26:12,0.06,4.04,0.00,24.95,27.23,30.56,14.17,48.68,1004.90,2026.99,2229.75,2142.07,2449.26,599.86,585.21,37.45,0000 0000 0000 0000 000000
2017-04-04 10:31:14,0.02,4.05,0.00,24.96,27.22,30.56,14.17,48.63,1004.90,2026.99,2229.03,2141.99,2448.99,599.73,585.14,37.50,0000 0000 0000 0000 000000
2017-04-04 10:36:15,0.08,4.05,0.00,24.97,27.21,30.56,14.24,48.77,1004.90,2026.99,2228.46,2141.43,2448.48,600.16,585.49,37.55,0000 0000 0000 0000 000000
2017-04-04 10:41:16,0.04,4.05,0.00,24.97,27.20,30.54,14.25,48.78,1004.90,2026.99,2227.47,2141.00,2447.96,600.08,585.34,37.60,0000 0000 0000 0000 000000
2017-04-04 10:46:17,0.05,4.05,0.00,24.92,27.19,30.56,14.15,48.80,1004.90,2027.00,2226.88,2140.62,2447.25,599.84,585.26,37.65,0000 0000 0000 0000 000000
2017-04-04 10:51:18,0.07,4.06,0.00,24.91,27.17,30.61,14.20,48.83,1004.91,2027.01,2225.83,2140.02,2446.82,600.07,585.54,37.70,0000 0000 0000 0000 000000
2017-04-04 10:56:20,0.07,4.06,0.00,24.90,27.17,30.56,14.24,48.90,1004.92,2027.03,2224.93,2139.56,2446.05,600.06,585.50,37.75,0000 0000 0000 0000 000000
2017-04-04 11:01:21,0.04,4.07,0.00,24.85,27.15,30.58,14.21,48.86,1004.99,2027.03,2224.25,2139.02,2445.77,599.99,585.56,37.80,0000 0000 0000 0000 000000
2017-04-04 11:06:22,0.05,4.07,0.00,24.79,27.15,30.59,14.20,48.70,1005.33,2027.04,2223.87,2138.70,2445.02,600.26,586.08,37.86,0000 0000 0000 0000 000000
2017-04-04 11:11:23,0.08,4.07,0.00,24.70,27.15,30.62,14.33,48.74,1005.39,2027.06,2222.84,2137.99,2444.19,600.06,586.12,37.91,0000 0000 0000 0000 000000
2017-04-04 11:16:24,0.10,4.08,0.00,24.45,27.13,30.67,14.27,48.71,1005.39,2027.09,2221.70,2137.17,2443.31,600.06,586.60,37.96,0000 0000 0000 0000 000000
2017-04-04 11:21:26,0.13,4.08,0.00,24.31,27.12,30.74,14.29,48.70,1005.39,2027.22,2220.58,2136.42,2442.36,600.06,586.93,38.01,0000 0000 0000 0000 000000
2017-04-04 11:26:27,0.10,4.09,0.00,24.26,27.11,30.77,14.36,48.63,1005.39,2027.42,2219.53,2135.69,2441.49,600.05,587.03,38.06,0000 0000 0000 0000 000000
2017-04-04 11:31:29,0.10,4.09,0.00,24.25,27.10,30.76,14.22,48.62,1005.39,2027.58,2218.32,2134.92,2440.54,599.57,586.50,38.11,0000 0000 0000 0000 000000
2017-04-04 11:36:30,0.14,4.10,0.00,24.23,27.10,30.76,14.32,48.59,1005.40,2027.78,2216.91,2134.05,2439.54,600.14,587.15,38.16,0000 0000 0000 0000 000000
2017-04-04 11:41:31,0.09,4.10,0.00,24.19,27.08,30.79,14.24,48.62,1005.47,2027.78,2215.77,2133.21,2438.56,599.74,586.92,38.21,0000 0000 0000 0000 000000
2017-04-04 11:46:33,0.09,4.11,0.00,24.18,27.07,30.78,14.26,48.62,1005.60,2027.75,2214.80,2132.47,2437.70,599.93,587.35,38.26,0000 0000 0000 0000 000000
2017-04-04 11:51:34,0.08,4.11,0.00,24.19,27.07,30.80,14.35,48.56,1005.64,2027.79,2213.75,2131.77,2436.78,600.05,587.29,38.31,0000 0000 0000 0000 000000
2017-04-04 11:56:35,0.10,4.12,0.00,24.15,27.07,30.82,14.37,48.61,1005.69,2027.80,2212.50,2130.93,2435.73,600.18,587.56,38.36,0000 0000 0000 0000 000000
2017-04-04 12:01:37,0.07,4.12,0.00,24.10,27.07,30.86,14.29,48.59,1005.82,2027.50,2211.11,2129.95,2434.61,599.94,587.47,38.41,0000 0000 0000 0000 000000
2017-04-04 12:06:38,0.10,4.13,0.00,24.06,27.07,30.90,14.27,48.56,1005.85,2027.31,2209.67,2129.01,2433.55,600.08,587.64,38.46,0000 0000 0000 0000 000000
2017-04-04 12:11:39,0.07,4.13,0.00,23.98,27.08,30.93,14.35,48.49,1005.87,2027.21,2208.44,2128.13,2432.51,600.36,588.12,38.51,0000 0000 0000 0000 000000
2017-04-04 12:16:41,0.10,4.14,0.00,23.82,27.09,30.97,14.36,48.65,1005.87,2027.10,2207.07,2127.28,2431.48,599.94,588.05,38.56,0000 0000 0000 0000 000000
2017-04-04 12:21:42,0.10,4.14,0.00,23.63,27.08,31.04,14.32,48.59,1005.87,2027.05,2205.73,2126.40,2430.44,600.04,588.55,38.61,0000 0000 0000 0000 000000
2017-04-04 12:26:43,0.10,4.15,0.00,23.58,27.09,31.05,14.43,48.51,1005.87,2027.04,2204.59,2125.55,2429.50,600.07,588.61,38.66,0000 0000 0000 0000 000000
2017-04-04 12:31:44,0.09,4.15,0.00,23.57,27.10,31.03,14.38,48.58,1005.87,2027.03,2203.42,2124.69,2428.40,600.37,588.93,38.71,0000 0000 0000 0000 000000
2017-04-04 12:36:45,0.08,4.16,0.00,23.62,27.10,31.04,14.37,48.55,1005.88,2027.02,2202.20,2123.88,2427.41,599.78,588.21,38.77,0000 0000 0000 0000 000000
2017-04-04 12:41:46,0.12,4.16,0.00,23.68,27.10,31.05,14.36,48.54,1005.90,2027.02,2200.74,2122.95,2426.33,600.05,588.45,38.82,0000 0000 0000 0000 000000
2017-04-04 12:46:47,0.10,4.17,0.00,23.72,27.11,31.09,14.29,48.47,1005.92,2027.02,2199.49,2122.02,2425.17,599.68,587.98,38.87,0000 0000 0000 0000 000000
2017-04-04 12:51:48,0.10,4.18,0.00,23.74,27.12,31.11,14.38,48.43,1006.02,2027.01,2198.13,2121.11,2424.11,600.06,588.44,38.92,0000 0000 0000 0000 000000
2017-04-04 12:56:50,0.11,4.18,0.00,23.75,27.12,31.13,14.28,48.46,1006.18,2027.00,2196.84,2120.16,2423.01,599.53,587.99,38.97,0000 0000 0000 0000 000000